Location: Unspecified
(0.0000°N, 0.0000°E)
Time: 12:32:26
(UTC+02:00)

Cosmos 1954 Rocket - Visible Passes

Search period start: 28 June 2017 00:00
Search period end: 08 July 2017 00:00
Orbit: 753 x 781 km, 74.0° (Epoch: 27 June)

Date Brightness Start Highest point End Pass type
(mag) Time Alt. Az. Time Alt. Az. Time Alt. Az.
28 Jun 7.2 07:32:08 10° NE 07:35:06 15° ENE 07:38:03 10° ESE visible
29 Jun 6.7 21:08:01 10° SW 21:11:58 22° WNW 21:15:55 10° NNW visible
30 Jun 5.4 20:29:45 10° SSW 20:34:44 45° WNW 20:39:40 10° N visible
01 Jul 6.3 07:20:35 10° NNE 07:25:04 29° ENE 07:29:36 10° SE visible
02 Jul 7.1 06:45:06 10° NE 06:47:49 14° ENE 06:50:32 10° ESE visible
02 Jul 7.6 21:00:45 10° W 21:01:57 11° WNW 21:03:10 10° WNW visible
04 Jul 4.8 07:09:55 10° N 07:15:02 57° ENE 07:20:13 10° SSE visible
05 Jul 6.1 06:33:24 10° NNE 06:37:48 27° ENE 06:42:14 10° SE visible
06 Jul 7.1 05:58:07 10° NE 06:00:33 13° ENE 06:02:58 10° ESE visible
07 Jul 3.9 06:59:48 10° NNW 07:05:01 74° WSW 07:10:18 10° S visible
